Overview Statistics Trail Chart Weather Telemetry Raw packets
 

This is the latest recevied weather packets stored in our database for station/object W1MDM-10. If no packets are shown the sender has not sent any weather packets the latest 10 day(s).

<< 13 14 15 16 17 18 19 >>
Time Temp. Humidity Pressure Rain* Wind** Luminosity Snow
1788270037 27.22° C 87% 1015.9 hPa 0 mm - - -
1788269737 26.67° C 88% 1015.7 hPa 0 mm - - -
1788269437 26.67° C 89% 1015.7 hPa 0 mm - - -
1788269137 26.11° C 90% 1015.7 hPa 0 mm - - -
1788268837 26.11° C 91% 1015.7 hPa 0 mm - - -
1788268537 25.56° C 92% 1015.7 hPa 0 mm - - -
1788268237 25.56° C 92% 1015.7 hPa 0 mm - - -
1788267937 25.56° C 93% 1015.7 hPa 0 mm - - -
1788267637 25° C 94% 1015.5 hPa 0 mm - - -
1788267349 25° C 94% 1015.5 hPa 0 mm - - -
1788267037 25° C 93% 1015.3 hPa 0 mm - - -
1788266737 25° C 93% 1015.3 hPa 0 mm - - -
1788266437 24.44° C 93% 1015.3 hPa 0 mm - - -
1788266137 24.44° C 93% 1015.2 hPa 0 mm - - -
1788265837 24.44° C 93% 1015.3 hPa 0 mm - - -
1788265537 24.44° C 93% 1015.2 hPa 0 mm - - -
1788265237 25° C 92% 1015.2 hPa 0 mm - - -
1788264937 25° C 92% 1015.1 hPa 0 mm - - -
1788264637 25° C 92% 1015.1 hPa 0 mm - - -
1788264337 25° C 92% 1015 hPa 0 mm - - -
1788264037 25° C 92% 1014.9 hPa 0 mm - - -
1788263737 25° C 92% 1014.9 hPa 0 mm - - -
1788263437 25° C 92% 1015.1 hPa 0 mm - - -
1788263137 25° C 92% 1015.1 hPa 0 mm - - -
1788262837 25° C 92% 1015.1 hPa 0 mm - - -

* Rain latest hour (hover to see other rain measurements)
** Current wind speed in m/s (hover to see current wind gust speed)